TimeMST,TemperatureF,Dew PointF,Humidity,Sea Level PressureIn,VisibilityMPH,Wind Direction,Wind SpeedMPH,Gust SpeedMPH,PrecipitationIn,Events,Conditions,WindDirDegrees,DateUTC
12:48 AM,33.1,30.0,89,29.80,-9999.0,West,4.6,-,N/A,,Unknown,280,2012-11-21 07:48:00
1:48 AM,34.0,30.9,89,29.80,-9999.0,West,4.6,-,N/A,,Unknown,280,2012-11-21 08:48:00
2:48 AM,30.9,28.9,92,29.79,-9999.0,Calm,Calm,-,N/A,,Unknown,0,2012-11-21 09:48:00
3:48 AM,32.0,30.0,92,29.79,-9999.0,Calm,Calm,-,N/A,,Unknown,0,2012-11-21 10:48:00
4:48 AM,32.0,28.9,88,29.79,-9999.0,Calm,Calm,-,N/A,,Unknown,0,2012-11-21 11:48:00
5:48 AM,30.0,28.0,92,29.77,-9999.0,Calm,Calm,-,N/A,,Unknown,0,2012-11-21 12:48:00
6:48 AM,32.0,30.0,92,29.75,-9999.0,Calm,Calm,-,N/A,,Unknown,0,2012-11-21 13:48:00
7:48 AM,35.1,32.0,89,29.74,-9999.0,NE,3.5,-,N/A,,Unknown,50,2012-11-21 14:48:00
8:48 AM,36.0,33.1,89,29.70,-9999.0,East,4.6,-,N/A,,Unknown,90,2012-11-21 15:48:00
9:48 AM,44.1,37.0,76,29.68,-9999.0,Calm,Calm,-,N/A,,Unknown,0,2012-11-21 16:48:00
10:48 AM,55.0,34.0,45,29.64,-9999.0,SSW,18.4,25.3,N/A,,Unknown,210,2012-11-21 17:48:00
11:48 AM,50.0,37.9,63,29.68,-9999.0,West,16.1,-,N/A,,Unknown,270,2012-11-21 18:48:00
12:48 PM,48.0,39.0,71,29.69,-9999.0,WNW,17.3,-,N/A,,Unknown,300,2012-11-21 19:48:00
1:48 PM,50.0,39.9,68,29.67,-9999.0,WNW,9.2,-,N/A,,Unknown,300,2012-11-21 20:48:00
2:48 PM,51.1,39.0,63,29.66,-9999.0,WSW,5.8,-,N/A,,Unknown,250,2012-11-21 21:48:00
3:48 PM,46.9,39.0,74,29.69,-9999.0,WNW,6.9,-,N/A,,Unknown,300,2012-11-21 22:48:00
4:48 PM,46.0,39.0,76,29.73,-9999.0,West,3.5,-,N/A,,Unknown,270,2012-11-21 23:48:00
5:48 PM,44.1,37.9,79,29.75,-9999.0,Calm,Calm,-,N/A,,Unknown,0,2012-11-22 00:48:00
6:48 PM,44.1,37.9,79,29.79,-9999.0,West,9.2,-,N/A,,Unknown,260,2012-11-22 01:48:00
7:48 PM,44.1,39.0,82,29.78,-9999.0,WSW,6.9,-,N/A,,Unknown,250,2012-11-22 02:48:00
8:48 PM,43.0,39.0,86,29.80,-9999.0,West,8.1,-,N/A,,Unknown,270,2012-11-22 03:48:00
9:48 PM,45.0,34.0,65,29.82,-9999.0,West,20.7,29.9,N/A,,Unknown,280,2012-11-22 04:48:00
10:48 PM,39.0,35.1,86,29.84,-9999.0,WNW,9.2,-,N/A,,Unknown,300,2012-11-22 05:48:00
11:48 PM,37.9,32.0,79,29.89,-9999.0,NW,12.7,-,N/A,,Unknown,310,2012-11-22 06:48:00